Theta_e
303 302 302 302 302 301 300 300 300 299 299 298 297 296 296 296 296 296 296 297 296 296 296 295 294 295 293 291 290 289 288 287 284 287 286 285 284 285 286 287 287 286 287
301 300 300 301 300 299 299 299 300 299 299 298 297 296 295 295 295 294 294 294 294 294 294 294 292 293 291 290 288 287 286 287 285 282 285 285 283 285 284 284 284 285 286
300 299 299 299 298 298 298 299 299 299 298 298 296 295 294 294 294 294 294 293 293 294 294 293 292 291 289 288 287 286 285 285 284 284 285 285 285 285 284 285 284 284 285
300 299 299 299 299 299 299 299 299 298 297 297 296 295 295 294 293 293 292 292 293 293 293 293 292 290 289 287 286 285 284 284 283 282 283 284 284 285 282 281 282 284 282
299 299 299 300 300 299 299 298 298 297 296 296 295 295 294 293 293 292 292 292 292 291 291 291 291 290 288 289 286 285 284 283 283 282 282 283 283 282 281 282 279 280 282
299 299 299 299 298 298 297 297 296 295 295 294 294 294 293 293 292 292 292 291 291 290 289 290 289 286 286 288 288 288 286 283 283 282 283 282 282 281 281 280 279 279 278
299 298 298 298 297 297 297 296 295 294 295 294 293 294 293 294 292 291 290 291 290 290 289 288 288 287 285 285 286 286 286 287 286 284 283 282 281 282 281 279 279 279 279
295 295 296 296 297 297 296 295 295 295 295 294 294 293 293 293 292 291 289 289 289 290 289 289 288 286 285 284 283 283 282 283 283 283 283 283 283 281 281 280 280 280 281
291 292 292 294 294 294 294 295 295 294 294 293 292 292 292 292 292 291 290 288 287 288 288 289 288 287 287 286 283 282 282 282 285 286 285 286 285 284 282 281 280 280 280
288 289 291 291 292 292 293 293 292 292 289 289 288 289 289 290 291 291 290 288 287 287 287 287 285 287 288 287 283 283 281 282 281 283 283 284 285 284 285 282 282 279 279
288 289 289 289 289 289 291 290 289 289 288 288 287 288 288 288 289 290 290 288 287 286 286 285 286 288 288 287 286 283 283 282 282 282 282 281 281 282 282 282 281 281 280
289 288 286 286 287 287 287 288 287 288 287 286 286 286 287 287 287 288 289 290 290 286 286 285 285 287 287 287 286 284 285 284 282 281 281 282 281 281 281 281 280 280 280
285 284 284 285 285 286 285 286 287 287 286 285 285 285 285 286 286 288 287 288 289 287 286 287 287 287 287 287 287 285 283 283 283 282 282 282 282 281 280 278 278 277 277
284 285 285 285 285 286 286 286 286 286 285 285 285 285 285 285 285 285 285 287 286 286 286 285 286 286 286 286 284 284 284 284 284 283 283 282 280 279 279 279 279 278 279
285 286 286 286 285 285 286 286 285 286 285 284 284 284 284 283 284 286 285 286 285 285 285 285 284 284 284 284 284 284 284 284 283 284 282 280 280 280 278 279 280 279 278
285 285 285 285 285 285 285 285 288 287 287 287 287 286 285 286 287 286 286 287 287 287 284 284 283 283 283 283 283 283 284 284 284 283 281 280 279 279 277 279 278 278 276
284 284 285 284 284 283 283 282 282 285 287 287 286 286 286 286 286 287 287 288 287 287 284 284 284 284 283 283 284 284 283 283 283 282 281 281 280 279 278 277 277 277 275
284 283 283 282 283 283 283 283 283 282 282 283 285 286 285 286 286 287 288 287 284 285 284 284 284 284 284 284 284 283 282 282 282 281 281 281 280 279 278 277 277 276 275
284 284 284 283 283 283 283 283 283 283 282 282 284 285 285 286 286 287 287 284 284 284 284 284 284 284 284 284 284 283 282 282 282 281 281 280 280 279 278 278 277 277 275
284 280 282 282 282 283 283 282 282 282 282 282 283 283 285 285 284 284 285 284 283 283 283 283 284 284 284 284 283 283 282 281 281 281 280 280 280 280 278 278 277 275 274
284 282 283 283 283 283 282 282 283 282 282 282 282 284 284 282 282 282 282 282 282 283 283 283 283 283 284 283 283 283 282 282 282 281 280 279 279 278 278 277 276 276 273
284 284 284 284 284 283 283 283 282 282 283 282 283 283 284 283 283 282 282 282 282 283 283 281 282 283 283 283 282 282 281 281 280 280 279 278 278 278 276 275 275 275 272
284 284 284 283 284 282 284 283 283 283 283 283 282 281 282 282 282 282 282 282 282 282 282 283 283 281 282 283 282 281 279 279 279 279 277 277 277 276 276 274 272 271 270
282 282 281 281 281 281 281 281 281 279 279 281 283 282 282 282 282 282 281 282 281 281 279 280 281 280 279 280 281 280 279 279 279 278 278 277 276 275 274 273 272 271 270
280 280 279 279 279 279 279 279 280 280 280 281 281 282 283 280 279 279 280 279 278 280 276 275 279 279 277 276 276 276 275 277 277 277 277 276 275 274 273 273 272 271 270
276 276 277 277 277 277 277 277 277 278 278 278 279 280 280 281 280 279 276 274 275 278 277 274 274 274 276 277 276 275 274 273 273 274 275 275 275 274 273 271 271 274 271
Wind_Speed
7 8 9 8 9 9 9 9 9 9 9 10 10 10 11 11 11 11 11 10 12 11 10 10 10 10 7 6 6 5 6 6 7 2 1 1 2 2 3 3 3 3 4
7 7 7 7 8 9 10 10 9 10 10 10 10 11 11 11 11 12 12 11 12 12 12 12 12 8 11 9 7 8 7 6 5 4 1 2 4 2 3 4 2 2 3
6 7 7 8 8 9 10 10 10 11 11 10 11 12 12 12 12 12 12 13 13 13 12 13 12 11 10 8 8 7 6 5 3 3 2 1 1 1 2 3 1 2 1
4 5 6 7 8 9 9 9 9 9 10 10 11 11 11 11 12 12 12 12 12 12 11 11 11 12 11 10 9 9 5 6 5 4 3 2 2 1 2 2 2 1 4
1 3 4 4 5 6 6 7 7 8 8 9 10 10 11 11 9 12 12 12 11 11 10 8 10 10 12 12 8 8 7 5 4 4 3 2 2 1 3 1 1 2 3
4 3 3 3 4 4 5 6 6 7 7 8 9 10 10 9 11 14 12 11 12 11 11 11 10 8 8 11 10 8 7 8 7 4 3 3 2 2 1 0 0 2 3
7 6 6 5 5 4 4 5 5 7 7 8 9 9 10 10 11 12 15 11 10 10 10 8 8 7 8 8 12 11 9 13 9 8 5 4 3 4 4 3 2 1 1
8 8 8 7 7 5 5 5 6 6 6 6 7 8 9 8 9 14 17 14 12 10 10 10 9 9 10 10 10 11 10 8 9 4 3 3 3 4 3 2 2 0 3
9 9 9 9 8 6 5 5 6 6 5 6 5 7 8 8 8 11 12 9 10 10 8 8 9 9 12 17 9 9 7 5 7 10 8 7 7 9 7 4 3 2 1
10 9 9 8 9 9 8 6 4 5 4 4 5 6 8 9 9 9 11 7 8 7 6 7 11 9 13 20 10 9 8 7 7 6 5 6 7 7 11 5 2 2 2
7 6 6 7 7 7 6 5 5 5 4 5 5 5 6 6 8 9 12 8 7 5 5 5 5 13 12 18 15 7 8 8 11 6 5 5 4 5 4 3 3 2 2
5 5 5 5 4 4 5 4 4 4 4 4 4 5 3 4 6 8 10 14 13 5 4 2 4 13 15 15 13 10 12 10 5 5 5 5 5 4 3 3 3 2 2
5 4 4 4 3 4 4 5 4 4 4 5 4 5 6 3 3 8 12 13 15 6 0 3 6 11 13 10 14 12 9 5 5 5 5 4 3 4 5 4 3 3 3
5 4 3 4 6 5 4 4 4 5 5 5 6 6 7 6 5 5 4 4 7 4 4 2 4 7 7 5 6 7 6 5 5 5 3 4 5 4 4 2 3 2 2
4 4 5 4 4 4 3 3 3 3 4 5 5 5 7 8 7 13 10 5 2 5 5 3 3 4 4 4 5 5 5 5 5 4 5 5 4 4 4 3 3 4 2
4 4 4 4 5 5 5 5 6 7 10 11 12 8 4 10 16 15 12 6 8 11 2 2 2 3 3 3 4 5 5 5 4 4 5 5 5 5 5 3 2 2 3
4 5 4 5 5 5 5 5 5 6 9 11 12 12 13 12 13 13 12 6 6 6 1 1 1 2 3 4 5 4 4 4 6 5 5 4 4 5 5 4 4 3 3
5 6 4 4 4 4 4 4 3 5 6 7 10 10 13 12 12 12 6 5 1 3 1 2 3 2 3 3 3 3 4 5 5 5 4 4 5 6 4 4 3 2 3
4 4 4 4 4 5 4 4 5 5 6 6 6 7 7 10 9 9 6 2 2 2 2 2 2 2 3 2 3 4 5 5 5 5 5 5 4 5 5 4 3 4 4
5 6 6 5 5 5 5 5 5 6 5 6 6 6 5 3 5 4 3 3 3 3 2 3 2 2 1 1 2 3 4 5 5 5 5 4 5 4 4 5 5 4 2
4 5 6 5 5 5 5 5 4 5 5 5 6 6 9 5 5 5 5 5 5 4 4 3 2 2 2 2 3 3 3 3 4 5 5 5 5 4 3 4 4 3 3
4 4 5 4 5 5 4 4 4 4 3 4 4 4 8 4 4 3 3 3 3 3 3 2 1 1 1 2 2 3 4 4 4 5 5 4 4 5 4 3 3 3 3
3 3 3 3 3 3 3 3 3 3 4 4 3 3 4 3 3 3 3 3 2 2 1 1 0 0 0 0 1 1 3 4 4 5 6 5 5 5 4 4 3 3 3
2 1 1 1 2 2 1 2 2 2 2 3 5 5 4 4 4 4 4 4 4 3 2 3 2 2 1 1 1 1 2 3 3 3 5 5 4 5 3 3 3 3 3
2 2 2 2 2 2 2 2 2 3 3 3 4 4 5 3 3 3 3 4 3 4 3 2 2 4 4 4 3 2 2 5 4 6 4 4 5 6 4 3 3 3 3
1 1 1 0 0 0 1 2 2 3 4 4 4 5 6 7 5 4 3 3 4 5 4 2 3 4 6 6 7 7 6 5 4 5 3 3 4 3 3 3 5 4 4
Wind_Direction
198 210 216 217 219 221 223 228 227 227 228 221 218 217 215 214 212 216 220 222 220 224 223 225 227 224 228 221 214 218 222 219 242 265 215 178 271 257 281 281 294 295 302
200 208 214 219 220 224 228 231 230 231 230 231 225 225 220 218 215 215 218 219 221 220 225 223 226 222 225 223 213 214 220 217 211 234 202 225 234 243 263 279 259 260 278
193 200 210 217 222 225 228 231 229 231 231 229 224 225 222 218 217 217 217 220 220 224 222 223 221 219 221 214 213 213 213 212 186 225 217 181 269 295 316 250 262 277 270
190 206 220 225 228 233 235 239 240 235 236 233 232 229 229 225 221 219 218 222 225 225 227 227 221 217 217 209 212 210 202 190 185 201 211 226 228 203 267 298 341 325 329
247 235 249 251 254 252 249 247 246 245 244 240 242 235 231 228 225 216 215 219 224 226 223 223 226 219 212 210 206 204 188 188 188 205 206 183 209 193 230 113 296 329 247
30 3 340 311 292 278 273 265 258 252 247 245 244 241 242 235 226 215 215 212 216 219 222 217 218 211 218 213 221 205 188 182 197 193 221 219 180 172 158 140 281 294 0
28 21 9 352 327 310 293 276 265 263 260 254 255 253 250 248 219 217 221 234 223 218 219 214 208 208 196 201 214 204 205 203 193 186 191 187 178 196 140 181 167 123 252
25 16 7 355 346 338 318 302 290 280 273 270 268 263 263 262 239 211 211 224 233 223 213 214 208 199 196 192 182 194 202 200 204 176 162 134 127 161 137 104 106 5 260
14 4 355 350 340 331 322 322 320 311 300 288 288 286 280 274 254 227 210 226 238 233 224 215 210 209 201 191 186 190 189 189 191 179 175 184 184 168 154 137 204 198 248
2 348 345 348 344 340 340 341 343 322 321 313 299 292 295 290 292 236 214 230 237 232 221 219 211 210 191 193 193 185 190 186 165 174 179 194 194 182 172 197 167 181 186
340 335 345 346 341 340 339 341 343 340 326 325 312 305 301 303 301 299 225 232 238 236 222 213 217 211 198 197 195 187 192 150 186 164 169 146 160 190 189 180 177 200 180
334 336 336 336 342 340 349 342 344 346 325 314 316 309 294 289 293 290 272 242 244 230 232 205 202 202 204 197 189 188 175 158 148 157 164 183 187 180 148 148 155 149 60
334 324 327 325 337 346 1 4 353 359 350 344 337 327 325 328 317 306 294 279 249 248 299 207 188 191 199 189 186 186 175 162 166 181 198 192 152 128 119 119 89 90 96
329 325 338 353 0 13 10 16 9 6 358 351 345 343 335 333 329 323 307 287 257 190 107 112 170 173 171 160 164 181 187 184 188 198 175 122 118 134 143 141 139 158 151
338 346 2 2 14 2 23 13 9 8 349 336 332 331 332 335 335 327 320 310 83 127 118 136 158 159 168 169 178 182 193 195 197 163 144 139 143 145 131 168 139 154 176
24 15 15 14 16 20 22 20 45 27 27 23 16 11 341 338 340 339 335 312 148 150 93 157 176 187 193 183 188 198 205 193 163 143 143 148 150 154 147 144 126 143 135
46 33 33 37 34 32 30 25 6 8 18 16 13 0 2 357 355 354 349 152 173 162 346 204 231 206 206 206 210 206 170 155 141 143 141 150 158 137 140 147 150 143 128
58 52 53 47 43 42 36 27 18 14 2 7 11 17 9 15 17 14 52 103 87 224 341 322 294 275 240 210 176 160 154 144 141 137 141 151 142 140 145 148 154 151 129
59 57 58 57 46 40 35 32 32 29 27 22 10 16 3 23 33 40 50 24 5 296 251 230 227 253 245 219 176 162 151 149 143 145 153 151 146 141 152 148 142 139 124
64 54 56 52 43 40 37 35 35 36 33 30 24 18 348 353 28 30 31 6 342 327 307 287 287 276 205 165 147 139 139 142 149 154 149 143 141 149 150 148 146 145 132
72 68 65 65 59 48 45 42 36 40 31 26 20 6 24 34 25 15 9 5 358 353 350 351 8 17 63 88 91 108 128 138 148 137 141 139 141 139 111 108 114 122 139
67 61 53 41 45 50 44 37 32 31 25 21 4 3 22 31 22 12 10 11 9 5 359 7 40 54 114 155 160 160 155 145 138 138 133 137 137 128 126 122 134 149 138
49 52 55 55 46 33 41 33 16 359 352 347 335 324 349 344 346 338 331 331 323 318 317 294 301 44 63 68 123 137 163 172 165 152 147 150 147 146 148 147 151 156 156
45 36 27 30 44 347 359 342 327 308 311 317 321 314 307 310 306 298 286 278 274 257 216 178 185 173 124 67 38 35 83 114 125 139 141 150 154 150 144 141 159 183 164
42 20 23 27 2 358 338 345 332 334 309 296 290 286 293 278 268 264 266 275 273 279 270 261 179 166 168 158 147 116 117 149 143 146 142 149 156 162 163 167 174 175 181
129 137 143 163 227 336 325 328 325 303 292 292 289 291 293 294 291 287 279 265 268 263 262 245 261 219 182 175 171 158 165 162 154 164 140 146 156 166 165 171 195 214 221